Location: Wingville
(42.9917°N, 90.4915°W)
Time: 15:04:37
(UTC+00:00)

CUBESAT XI-V - Pass Details

Date: 08 July 2022
Orbit: 668 x 690 km, 98.1° (Epoch: 18 August)

Event Time Altitude Azimuth Distance (km) Brightness Sun altitude
Exits shadow 07:09:10 25° 119° (ESE) 1,355 ? -23.0°
Maximum altitude 07:11:13 38° 70° (ENE) 1,022 ? -22.9°
Drops below altitude 10° 07:15:28 10° 3° (N) 2,104 ? -22.7°
Sets 07:17:48 0° 355° (N) 3,022 ? -22.5°
